Location: Oberkirch
(48.5323°N, 8.0787°E)
Time: 01:12:46
(UTC+00:00)

SL-16 R/B - Pass Details

Date: 08 November 2025
Orbit: 841 x 844 km, 71.0° (Epoch: 13 December)

Event Time Altitude Azimuth Distance (km) Brightness Sun altitude
Exits shadow 04:06:01 20° 337° (NNW) 1,858 3.8 -23.1°
Drops below altitude 10° 04:09:06 10° 8° (N) 2,475 4.7 -22.6°
Sets 04:12:10 0° 24° (NNE) 3,414 5.7 -22.1°
